Weather past 2 weeks in Malakal, South Sudan

Now
N/A

Clear.


Feels Like: N/A
Forecast: 74 / 90 °F
Wind: 13 mph from Northwest

Location: Khartoum Airport

Current Time: Oct 21, 2014 at 4:11:29 AM

Latest Report: Oct 21, 2014 at 3:30 AM


Visibility: 10 mi

Pressure: 29.83 "Hg

Humidity: N/A

Dew point: N/A

Location of MalakalLocation

Historic Weather in Malakal — Graph

°F

Malakal temperature yesterday

Maximum temperature yesterday: 102 °F (at 2:00 PM)
Minimum temperature yesterday: 84 °F (at 8:00 AM)
Average temperature yesterday: 95 °F

Past Weeks' High & Low Weather Summary

 TemperatureHumidityPressure
High122 °F (Oct 12, 4:30 PM)83% (Oct 6, 7:00 AM)30.17 "Hg (Oct 6, 7:00 AM)
Low77 °F (Oct 6, 7:00 AM)6% (Oct 16, 6:00 PM)29.68 "Hg (Oct 8, 5:30 PM)
Average90 °F32%29.85 "Hg
* Reported Oct 6 3:00 AM — Oct 21 3:00 AM, Malakal, Weather by CustomWeather, © 2014

Note: Actual official high and low records may vary slightly from our data, if they occured in-between our weather recording intervals... More about our weather records

Advertising

Malakal weather history for previous 24 hours

 ConditionsComfort  
Time TempWeatherWind HumidityBarometerVisibility
3:00 AM
Oct 21
86 °FClear.12 mph18%29.83 "Hg10 mi
2:30 AMN/AClear.12 mphN/A29.83 "Hg10 mi
2:00 AM86 °FClear.12 mph18%29.83 "Hg10 mi
1:30 AMN/AClear.12 mphN/A29.83 "Hg10 mi
1:00 AM90 °FClear.8 mph17%29.83 "Hg10 mi
12:30 AMN/AClear.9 mphN/A29.83 "Hg10 mi
9:00 PM
Oct 20
93 °FClear.3 mph20%29.86 "Hg10 mi
8:30 PMN/AClear.3 mphN/A29.83 "Hg10 mi
8:00 PM95 °FClear.3 mph18%29.83 "Hg10 mi
7:30 PMN/AClear.3 mphN/A29.80 "Hg10 mi
7:00 PM99 °FClear.3 mph12%29.80 "Hg10 mi
6:30 PMN/AClear.8 mphN/A29.77 "Hg10 mi
6:00 PM102 °FSunny.7 mph12%29.77 "Hg10 mi
5:30 PMN/ASunny.8 mphN/A29.77 "Hg10 mi
5:00 PM102 °FSunny.8 mph12%29.77 "Hg10 mi
4:30 PMN/ASunny.7 mphN/A29.77 "Hg10 mi
4:00 PM102 °FSunny.8 mph12%29.77 "Hg10 mi
3:30 PMN/ASunny.12 mphN/A29.77 "Hg10 mi
3:00 PM102 °FSunny.6 mph12%29.80 "Hg10 mi
2:30 PMN/ASunny.12 mphN/A29.80 "Hg10 mi
2:00 PM102 °FSunny.8 mph12%29.80 "Hg10 mi
1:30 PMN/ASunny.7 mphN/A29.80 "Hg10 mi
1:00 PM100 °FSunny.5 mph13%29.80 "Hg10 mi
12:30 PMN/ASunny.12 mphN/A29.83 "Hg10 mi
12:00 PM100 °FSunny.12 mph15%29.83 "Hg10 mi
11:30 AMN/ASunny.13 mphN/A29.86 "Hg10 mi
11:00 AM97 °FSunny.12 mph16%29.86 "Hg10 mi
10:30 AMN/ASunny.13 mphN/A29.86 "Hg10 mi
10:00 AM93 °FSunny.15 mph19%29.86 "Hg10 mi
9:30 AMN/ASunny.10 mphN/A29.86 "Hg10 mi
9:00 AM86 °FSunny.9 mph20%29.86 "Hg10 mi
8:00 AM84 °FSunny.12 mph20%29.83 "Hg10 mi
6:30 AMN/AClear.12 mphN/A29.83 "Hg10 mi
5:00 AM86 °FClear.12 mph18%29.80 "Hg10 mi
4:30 AMN/AClear.6 mphN/A29.80 "Hg10 mi
4:00 AM88 °FClear.13 mph19%29.80 "Hg10 mi
Weather by CustomWeather, © 2014

See weather overviewHow to use our weather pages